Tracking 29892 objects as of 21-Nov-2024
HD Live streaming from Space Station
objects crossing your sky now

DELTA 1 DEB

Track DELTA 1 DEB now!
10-day predictions


NORAD ID: 7142
Int'l Code: 1973-086DG
Perigee: 1,511.9 km
Apogee: 1,583.5 km
Inclination: 101.8 °
Period: 116.9 minutes
Semi major axis: 7918 km
RCS: 0.1846 m2 (medium)
Launch date: November 6, 1973
Source: United States (US)
Launch site: AIR FORCE WESTERN TEST RANGE (AFWTR)

Note: This is SATELLITE DEBRIS
Your satellite tracking list
Your tracking list is empty




NASA's NSSDC Master Catalog

Two Line Element Set (TLE):
1  7142U 73086DG  24325.94487437  .00000008  00000-0  41810-3 0  9995
2  7142 101.7657 311.2593 0045221   4.9131   9.4068 12.32026636295159
Source of the keplerian elements: AFSPC